Regional Weather Roundup
Issued by NWS Little Rock, AR

Home | Current Version | Previous Version | Graphics & Text | Print | Product List | Glossary On
Versions: 1 2 3 4 5 6 7 8 9 10 11 12 13 14 15 16 17 18 19 20 21 22 23 24 25 26 27 28 29 30 31 32 33 34 35 36 37 38 39 40 41 42 43 44 45 46 47 48 49 50
000
ASUS44 KLZK 271605
RWRLZK

WEATHER ROUNDUP FOR ARKANSAS
NATIONAL WEATHER SERVICE LITTLE ROCK AR
1100 AM CDT MON JUL 27 2015

NOTE: "FAIR" INDICATES FEW OR NO CLOUDS BELOW 12,000 FEET WITH NO
SIGNIFICANT WEATHER AND/OR OBSTRUCTIONS TO VISIBILITY.

ARZ001-003-010-029-271700-
NORTHWEST ARKANSAS

CITY           SKY/WX    TMP DP  RH WIND       PRES   REMARKS
FAYETTEVILLE   SUNNY     88  76  67 SW9       30.00F HX  99
FORT SMITH     SUNNY     90  73  57 E5        29.95F HX  98
HARRISON       MOSUNNY   89  77  67 CALM      30.01F HX 101
BENTONVILLE    SUNNY     88  73  62 SW6       30.02R HX  96
ROGERS         SUNNY     90  76  63 SW8       30.02S HX 101
SILOAM SPGS    SUNNY     90  73  58 SW7       29.99S HX  98
HIGHFILL       SUNNY     88  78  72 VRB7      30.00F HX 101
SPRINGDALE     SUNNY     88  75  66 SW8       30.02F HX  97
$$

ARZ004-005-016-271700-
NORTH CENTRAL ARKANSAS

CITY           SKY/WX    TMP DP  RH WIND       PRES   REMARKS
BATESVILLE     SUNNY     90  77  66 SW5       29.98S HX 102
FLIPPIN        MOSUNNY   88  75  66 W6        29.97S HX  97
MTN HOME       MOSUNNY   86  76  71 SW5       29.99S HX  96
$$

ARZ040-041-271700-
WEST CENTRAL ARKANSAS

CITY           SKY/WX    TMP DP  RH WIND       PRES   REMARKS
MENA           SUNNY     93  73  52 CALM      30.00F HX 102
MOUNT IDA      SUNNY     91  75  59 CALM      29.97F HX 101
$$

ARZ009-017-025-026-028-271700-
NORTHEAST ARKANSAS

CITY           SKY/WX    TMP DP  RH WIND       PRES   REMARKS
JONESBORO        N/A     89  75  63 W7        29.98S HX  99
NEWPORT        SUNNY     92  76  59 SW5       29.99S HX 104
WALNUT RIDGE   SUNNY     90  75  62 SW7       29.97S HX 100
BLYTHEVILLE    SUNNY     90  78  68 CALM      29.99R HX 104
$$

ARZ022-023-033-042-044-271700-
CENTRAL ARKANSAS

CITY           SKY/WX    TMP DP  RH WIND       PRES   REMARKS
LITTLE ROCK    MOSUNNY   93  74  53 CALM      29.97S HX 103
N LITTLE ROCK  MOSUNNY   93  76  57 NW6       29.97S HX 104
JACKSONVILLE   SUNNY     93  73  53 VRB1      29.98S HX 102
SEARCY         SUNNY     92  77  61 CALM      29.99S HX 105
HOT SPRINGS    SUNNY     93  73  52 W7        29.99R HX 102
RUSSELLVILLE   SUNNY     91  75  59 CALM      29.96F HX 101
CLINTON        FAIR      90  77  66 CALM      29.99S HX 102
$$

ARZ036-271700-
EAST ARKANSAS

CITY           SKY/WX    TMP DP  RH WIND       PRES   REMARKS
WEST MEMPHIS   MOSUNNY   90  77  65 CALM      29.98R HX 103
$$

ARZ050-053-066-070-073-271700-
SOUTHWEST ARKANSAS

CITY           SKY/WX    TMP DP  RH WIND       PRES   REMARKS
ARKADELPHIA    FAIR      96  75  50 VRB6      29.97S HX 107
CAMDEN         SUNNY     91  72  52 CALM      29.96S HX  98
TEXARKANA      SUNNY     91  75  59 VRB5      29.97S HX 101
EL DORADO      SUNNY     90  74  59 S6        29.98F HX  99
DE QUEEN       SUNNY     90  76  63 CALM      29.95S HX 101
$$

ARZ056-057-069-271700-
SOUTHEAST ARKANSAS

CITY           SKY/WX    TMP DP  RH WIND       PRES   REMARKS
PINE BLUFF     SUNNY     91  75  59 SW5       29.98R HX 101
STUTTGART      SUNNY     91  72  52 CALM      29.98S HX  98
MONTICELLO     SUNNY     93  73  52 S7        29.97S HX 102

$$





USA.gov is the U.S. government's official web portal to all federal, state and local government web resources and services.